CZ-3C DEB, 40853

Orbit data source: Space-Track

CZ-3C DEB, 40853 is space debris in HEO originally from a launch on Fri, 24 Feb 2012 UTC launched from the Xichang Space Center, China (XSC). Debris objects in space refer to the collection of defunct objects orbiting the Earth. Examples of debris include non-operational satellites, rocket bodies, and fragments generated from explosions, collisions, or faulty payload assembly.

Loading next visibility...
Identifier
40853, 2012-008T
Orbit
HEO
Country
Flag of CNCN / PRC
Related business
Manufacturer
CALT
Mission
Spacecraft
Bus & Motor
Unknown
Mass
Unknown
Launch date (UTC)
2012-02-24 (14 years ago)
Launch vehicle
Unknown
Launch site
Xichang Space Center, China (XSC)
Object type
Payload
Rocket body
Debris
Shape & HBR
Unknown shape, 0.1 m
Radar Cross Section
Medium (>0.1 m² and <1 m²)

Expand to show TLE details & history
Last TLE update: 3 days ago

TLE from 3 days ago
0 CZ-3C DEB
1 40853U 12008T   26233.55470366  .00000003  00000-0  27660-2 0  9999
2 40853  21.2189  20.8674 7056888 191.9932 132.6295  2.27934803 99349
Epoch: 2026-08-21T13:18Z
TLE epoch observation values (Epoch: 2026-08-21T13:18:46.396Z)
Latitude
-0.00002°
Longitude
-148.7054°
Altitude
33,161.852 km
Speed
1.954 km/s
True Right ascension
01h 23m 27s
True Declination
0° 00' 00"
Sunlit
Object was in daylight at epoch
Visualization orbit readout
Latitude
Unknown
Longitude
Unknown
Altitude
Unknown
Speed
Unknown
Apparent Right ascension
Unknown
Apparent Declination
Unknown
Sunlit
N/A
Visualization observer readout
Local Sidereal Time
23:04:00
Azimuth
Unknown
Elevation
Unknown
Doppler factor
Unknown
Orbital elements
Apogee altitude
35,228.964 km
Perigee altitude
801.036 km
Semi-major axis
24,393.137 km
Eccentricity
0.70569
Inclination
21.2189°
RAAN
20.8674°
Arg. of periapsis
191.9932°
True anomaly
168.06963°
Mean anomaly
132.6295°
Eccentric anomaly
151.76062°
Mean motion
0.56969 °/min
Orbital period
631.92 mins
BSTAR
0.002766
Loading maneuver chart data...
Computing Atmospheric mass density...
Loading historical data...
Loading historical data...
Loading historical data...
Loading historical data...
Loading historical data...
Loading historical data...
Loading historical data...

Documentation

Showing up to 5 results
|